Content
SEND FEEDBACK

Daily
Averages
Monthly
Summary
United States of America

PYGA BEACH, GUAM


Home > North America > United States > Guam
Elevation: 20 feet     Latitude: 13 17N     Longitude: 144 39E

WEATHER
 
SELECT A DAY
Number of Records: 342,166;   Date Range: 1/1/95 - 8/12/14
 
SHARE

PRINT THIS DATA

[ ← Previous Day ]
WEATHER ALMANAC - OCTOBER 2, 2013
[ Next Day → ]
[ °C ]   °F
Weather ElementAverageHighLow
Temperature80.9 °F87.6 °F (1:58 pm)68.5 °F (3:58 am)
Dewpoint74 °F77.5 °F (6:58 pm)66 °F (3:58 am)
Humidity80.2 %95 % (1:58 am)64 % (5:58 pm)
Barometer29.73 in29.85 in (11:43 am)29.66 in (2:58 pm)
Wind Speed6.3 mph9.2 mph (8:58 am)
Weather ElementAverage
Visibility10 mi
Wind DirectionSW (230.3 °)

Weather ElementTotal
Precipitation---
Cooling Degree Days13.1 (Base 65)
Growing Degree Days28.1 (Base 50)
Averaged from 29 records on October 2, 2013
WEATHER CONDITIONS BREAKOUT
WIND DIRECTION BREAKOUT
WEATHER BY HOUR - OCTOBER 2, 2013
[ °C ]   °F
Local TimeTemperatureDewpointHumidityBarometerVisibilityWind DirectionWind SpeedGust SpeedPrecipitationEventsConditions
1:58 AM76.8 °F75.2 °F95 %29.72 in10.0 miSSW (200°)6.9 mphPartly Cloudy
2:58 AM70.0 °F68.2 °F94 %29.72 in10.0 miSW (230°)5.8 mphMostly Cloudy
3:58 AM68.5 °F66.0 °F92 %29.71 in10.0 miWSW (250°)6.9 mphOvercast
4:58 AM74.3 °F72.1 °F93 %29.70 in10.0 miWSW (240°)5.8 mphClear
5:58 AM74.3 °F72.5 °F94 %29.71 in10.0 miWest (260°)4.6 mphClear
6:58 AM75.4 °F73.6 °F94 %29.72 in10.0 miWNW (290°)6.9 mphClear
7:58 AM80.8 °F76.5 °F87 %29.74 in10.0 miWNW (290°)8.1 mphClear
8:58 AM83.8 °F76.1 °F77 %29.76 in10.0 miWNW (300°)9.2 mphClear
9:58 AM84.7 °F76.1 °F75 %29.77 in10.0 miWest (270°)8.1 mphClear
10:58 AM86.0 °F77.0 °F74 %29.75 in10.0 miWest (270°)8.1 mphMostly Cloudy
11:43 AM86.0 °F77.0 °F74 %29.85 in10.0 miVariable1.2 mphScattered Clouds
11:53 AM86.0 °F77.0 °F74 %29.84 in10.0 miNW (320°)1.2 mphMostly Cloudy
11:58 AM86.0 °F77.0 °F74 %29.72 in10.0 miVariable2.3 mphMostly Cloudy
12:53 PM82.4 °F75.2 °F79 %29.82 in10.0 miVariable3.5 mphMostly Cloudy
12:58 PM80.2 °F72.7 °F78 %29.69 in10.0 miVariable3.5 mphMostly Cloudy
1:03 PM86.0 °F77.0 °F74 %29.81 in10.0 miVariable5.8 mphMostly Cloudy
1:58 PM87.6 °F75.0 °F66 %29.67 in10.0 miVariable2.3 mphPartly Cloudy
2:58 PM85.1 °F73.2 °F67 %29.66 in10.0 miWest (260°)6.9 mphClear
3:33 PM80.6 °F71.6 °F74 %29.78 in10.0 miNNW (340°)9.2 mphMostly Cloudy
3:43 PM84.2 °F73.4 °F70 %29.79 in10.0 miNW (310°)9.2 mphScattered Clouds
3:58 PM84.2 °F74.1 °F72 %29.67 in10.0 miNW (310°)6.9 mphScattered Clouds
4:58 PM82.0 °F73.9 °F76 %29.68 in10.0 miNNW (340°)8.1 mphPartly Cloudy
5:58 PM84.2 °F70.9 °F64 %29.69 in10.0 miWNW (300°)6.9 mphScattered Clouds
6:58 PM80.1 °F77.5 °F92 %29.71 in10.0 miNW (310°)6.9 mphClear
7:58 PM82.4 °F77.0 °F84 %29.72 in10.0 miNW (310°)8.1 mphClear
8:58 PM80.6 °F71.8 °F74 %29.73 in10.0 miNW (320°)8.1 mphClear
9:58 PM80.6 °F70.9 °F72 %29.73 in10.0 miNW (320°)8.1 mphPartly Cloudy
10:58 PM74.1 °F72.0 °F93 %29.73 in10.0 miNW (320°)8.1 mphClear
11:58 PM78.6 °F76.5 °F93 %29.71 in10.0 miNW (320°)6.9 mphClear
Hourly data recorded from PGUA, located miles away from Pyga Beach, Guam







STORIES FROM OUR PARTNERS